Stations météo

réclame
Mon MeteoGroup
Volkel, Pays-Bas (6375): Température de l'air & dewpoint: 17.11.2017 12:00:00 - 23.11.2017 12:00:00 (CET)Volkel, Pays-Bas (6375): Température de l'air 5cm: 17.11.2017 12:00:00 - 23.11.2017 12:00:00 (CET)Volkel, Pays-Bas (6375): Vitesse du vent & gusts: 17.11.2017 12:00:00 - 23.11.2017 12:00:00 (CET)Volkel, Pays-Bas (6375): Direction du vent: 17.11.2017 12:00:00 - 23.11.2017 12:00:00 (CET)Volkel, Pays-Bas (6375): reduced air pressure: 17.11.2017 12:00:00 - 23.11.2017 12:00:00 (CET)Volkel, Pays-Bas (6375): visibility: 17.11.2017 12:00:00 - 23.11.2017 12:00:00 (CET)Volkel, Pays-Bas (6375): Quantités de précipitations: 17.11.2017 12:00:00 - 23.11.2017 12:00:00 (CET)
Date & Time tt [°C] td [°C] tt 5cm [°C] ff [km/h] ff [knt] fx [km/h] fx [knt] dd ppp [hPa] vv [km] rr [mm]
23.11.2017 12:00:00 13,0 10,0 12,5 29 16 - - SSW 1000,0 10 -
23.11.2017 11:00:00 12,7 9,6 11,9 35 19 68 37 SSW 999,2 10 0,7
23.11.2017 10:00:00 14,6 7,6 13,7 42 23 - - SSW 997,4 10 0,0
23.11.2017 09:00:00 13,7 6,4 12,3 35 19 61 33 SSW 997,1 10 0,0
23.11.2017 08:00:00 12,7 5,5 11,4 31 17 50 27 S 996,9 10 0,0
23.11.2017 07:00:00 12,9 5,0 11,8 29 16 - - S 997,0 10 0,0
23.11.2017 06:00:00 12,5 4,8 11,4 26 14 47 25 S 997,5 10 0,0
23.11.2017 05:00:00 11,9 4,3 10,5 24 13 50 27 S 998,1 10 0,0
23.11.2017 04:00:00 11,5 3,8 9,9 22 12 - - S 998,3 10 0,0
23.11.2017 03:00:00 11,1 4,0 10,1 21 11 32 18 S 999,2 10 0,0
23.11.2017 02:00:00 11,7 3,8 10,4 22 12 40 21 S 999,7 10 0,0
23.11.2017 01:00:00 11,2 3,5 9,4 21 11 - - S 1000,1 10 0,0
23.11.2017 00:00:00 10,9 3,3 9,3 21 11 29 16 S 1001,0 10 0,0
22.11.2017 23:00:00 10,5 3,3 9,2 22 12 36 19 S 1001,5 10 0,0
22.11.2017 22:00:00 10,4 3,6 9,0 22 12 - - S 1001,7 10 0,0
22.11.2017 21:00:00 10,9 4,0 9,2 22 12 40 21 S 1002,0 10 0,0
22.11.2017 20:00:00 10,7 4,4 9,2 21 11 40 21 S 1002,6 10 0,0
22.11.2017 19:00:00 10,8 5,1 9,2 21 11 - - S 1003,2 10 0,0
22.11.2017 18:00:00 11,2 5,8 9,7 22 12 32 18 S 1003,5 10 0,0
22.11.2017 17:00:00 11,1 6,8 9,5 15 8 29 16 S 1004,0 10 0,0
22.11.2017 16:00:00 12,5 7,3 11,4 21 11 - - S 1004,5 10 0,0
22.11.2017 15:00:00 13,2 7,7 12,8 18 10 32 18 S 1005,1 10 0,0
22.11.2017 14:00:00 13,2 8,0 13,3 18 10 32 18 SSW 1005,8 10 0,0
22.11.2017 13:00:00 12,6 8,1 12,7 22 12 - - SSW 1006,4 10 0,0
22.11.2017 12:00:00 11,3 7,8 11,1 26 14 40 21 SSW 1007,0 10 0,0
22.11.2017 11:00:00 11,1 7,8 10,8 31 17 47 25 SW 1007,2 10 0,0
22.11.2017 10:00:00 10,7 7,9 10,4 26 14 - - SSW 1007,0 10 0,0
22.11.2017 09:00:00 10,7 7,8 10,1 29 16 43 23 SSW 1006,8 10 0,0
22.11.2017 08:00:00 10,4 7,6 9,7 26 14 40 21 SSW 1006,5 10 0,0
22.11.2017 07:00:00 10,4 7,6 9,8 29 16 - - SSW 1006,1 10 0,0
22.11.2017 06:00:00 10,8 7,6 10,3 31 17 50 27 SSW 1006,3 10 0,0
22.11.2017 05:00:00 10,8 7,7 10,3 28 15 43 23 SSW 1006,6 10 0,0
22.11.2017 04:00:00 10,8 7,8 10,3 29 16 - - SSW 1006,9 10 0,0
22.11.2017 03:00:00 10,6 7,9 10,0 26 14 40 21 SSW 1007,4 10 0,0
22.11.2017 02:00:00 10,2 7,9 9,8 26 14 40 21 SSW 1007,8 10 0,0
22.11.2017 01:00:00 9,7 7,7 8,8 22 12 - - SSW 1008,1 10 0,0
22.11.2017 00:00:00 10,1 7,7 9,6 26 14 36 19 SSW 1008,4 10 0,0
21.11.2017 23:00:00 10,1 7,8 9,7 26 14 36 19 SSW 1008,7 10 0,0
21.11.2017 22:00:00 10,0 7,8 9,6 26 14 - - SSW 1009,1 10 0,0
21.11.2017 21:00:00 10,0 8,1 9,6 26 14 40 21 SSW 1009,5 10 0,0
21.11.2017 20:00:00 10,1 8,3 9,7 28 15 40 21 SSW 1009,9 10 0,0
21.11.2017 19:00:00 10,4 8,7 10,0 22 12 - - SSW 1010,2 10 0,0
21.11.2017 18:00:00 10,5 9,0 10,2 24 13 40 21 SW 1010,6 10 0,0
21.11.2017 17:00:00 10,6 9,4 10,3 26 14 40 21 SW 1010,6 10 0,0
21.11.2017 16:00:00 10,8 9,9 10,6 29 16 - - SW 1010,7 10 0,0
21.11.2017 15:00:00 11,1 10,5 10,9 28 15 43 23 SW 1010,8 8 0,1
21.11.2017 14:00:00 11,7 11,3 11,5 28 15 40 21 WSW 1010,9 4,5 0,5
21.11.2017 13:00:00 12,1 11,7 12,0 18 10 - - WSW 1011,0 2,6 0,3
21.11.2017 12:00:00 12,1 11,8 12,0 18 10 40 21 WSW 1011,3 3,5 0,2
21.11.2017 11:00:00 12,0 11,9 11,8 18 10 29 16 WSW 1011,5 3,0 0,4
21.11.2017 10:00:00 11,5 11,5 11,4 16 9 - - SW 1011,4 2,1 1,0
21.11.2017 09:00:00 11,2 11,2 11,1 15 8 22 12 SW 1011,3 2,5 1,0
21.11.2017 08:00:00 11,3 11,0 11,0 16 9 22 12 SW 1011,3 2,7 0,1
21.11.2017 07:00:00 11,3 11,0 11,0 16 9 - - SW 1011,0 4,6 0,4
21.11.2017 06:00:00 11,6 11,1 11,2 13 7 25 14 WSW 1011,4 6 0,0
21.11.2017 05:00:00 11,6 11,1 11,2 16 9 25 14 WSW 1011,2 7 0,0
21.11.2017 04:00:00 11,4 11,1 11,1 15 8 - - WSW 1011,2 5 0,1
21.11.2017 03:00:00 11,4 11,0 11,1 13 7 25 14 WSW 1011,3 7 0,0
21.11.2017 02:00:00 11,4 11,0 11,1 15 8 29 16 WSW 1011,2 8 0,5
21.11.2017 01:00:00 11,5 11,1 11,2 16 9 - - WSW 1011,2 4,2 0,4
21.11.2017 00:00:00 11,5 11,0 11,1 18 10 29 16 WSW 1010,8 6 0,3
20.11.2017 23:00:00 11,6 10,9 11,1 16 9 29 16 W 1010,7 10 0,7
20.11.2017 22:00:00 10,8 10,7 10,3 16 9 - - WSW 1010,6 5 0,8
20.11.2017 21:00:00 9,8 9,7 9,6 21 11 29 16 SW 1010,7 3,2 1,1
20.11.2017 20:00:00 9,7 9,5 9,5 22 12 32 18 SW 1010,7 5 0,2
20.11.2017 19:00:00 9,6 9,4 9,3 22 12 - - SW 1010,6 3,2 0,4
20.11.2017 18:00:00 8,8 8,7 8,4 24 13 36 19 SW 1010,8 3,0 0,6
20.11.2017 17:00:00 7,9 7,8 7,6 24 13 32 18 SW 1011,3 4,5 0,3
20.11.2017 16:00:00 7,1 6,8 6,8 22 12 - - SW 1012,2 2,2 0,4
20.11.2017 15:00:00 6,3 6,0 6,1 22 12 32 18 SSW 1012,9 9 0,1
20.11.2017 14:00:00 5,6 5,2 5,5 22 12 32 18 SSW 1014,3 4,0 0,2
20.11.2017 13:00:00 5,0 4,6 4,9 21 11 - - S 1015,3 4,5 1,3
20.11.2017 12:00:00 4,4 3,8 4,4 18 10 29 16 SSW 1017,2 8 0,8
20.11.2017 11:00:00 4,3 3,3 4,3 18 10 25 14 SSW 1017,9 10 0,1
20.11.2017 10:00:00 4,2 3,2 4,0 15 8 - - S 1018,5 10 0,2
20.11.2017 09:00:00 4,1 3,3 3,9 15 8 25 14 SSW 1019,3 10 0,8
20.11.2017 08:00:00 4,3 3,0 4,0 13 7 25 14 SW 1020,2 9 0,5
20.11.2017 07:00:00 4,4 2,9 4,0 13 7 - - SW 1020,0 10 0,0
20.11.2017 06:00:00 4,2 2,7 3,8 15 8 22 12 SW 1020,0 10 0,0
20.11.2017 05:00:00 4,2 2,7 3,8 15 8 22 12 SW 1020,1 10 0,0
20.11.2017 04:00:00 4,5 2,7 3,8 15 8 - - WSW 1020,5 10 0,0
20.11.2017 03:00:00 4,4 2,8 4,0 13 7 22 12 WSW 1020,8 10 0,0
20.11.2017 02:00:00 4,6 2,8 4,1 13 7 22 12 WSW 1021,3 10 0,0
20.11.2017 01:00:00 5,0 3,4 4,5 11 6 - - WSW 1021,4 10 0,3
20.11.2017 00:00:00 5,8 3,9 5,2 13 7 18 10 WSW 1021,6 10 0,0
19.11.2017 23:00:00 5,6 4,1 5,0 13 7 22 12 WSW 1021,8 10 0,0
19.11.2017 22:00:00 6,1 4,2 5,5 11 6 - - W 1021,9 10 0,0
19.11.2017 21:00:00 5,6 4,1 4,9 11 6 25 14 WSW 1021,2 10 0,0
19.11.2017 20:00:00 5,4 3,8 4,6 11 6 25 14 WSW 1020,7 10 0,1
19.11.2017 19:00:00 6,6 3,8 5,9 11 6 - - W 1020,5 10 0,1
19.11.2017 18:00:00 6,5 3,6 5,0 11 6 32 18 W 1020,0 10 0,1
19.11.2017 17:00:00 6,4 3,6 5,1 13 7 22 12 W 1019,6 6 0,1
19.11.2017 16:00:00 7,1 4,0 6,3 18 10 - - WNW 1019,2 10 0,2
19.11.2017 15:00:00 7,0 3,9 7,0 15 8 36 19 NW 1019,2 10 0,4
19.11.2017 14:00:00 9,4 3,7 9,6 16 9 40 21 WNW 1018,4 10 0,0
19.11.2017 13:00:00 9,1 4,1 8,5 13 7 - - WNW 1018,2 10 0,0
19.11.2017 12:00:00 9,1 4,4 9,1 18 10 29 16 W 1018,0 10 0,0
19.11.2017 11:00:00 7,7 3,9 7,2 13 7 25 14 W 1018,1 10 0,0
19.11.2017 10:00:00 5,9 4,0 5,7 13 7 - - WSW 1017,6 10 0,0
19.11.2017 09:00:00 4,8 3,4 4,0 15 8 25 14 W 1017,2 10 0,0
19.11.2017 08:00:00 2,1 1,5 1,2 11 6 18 10 WSW 1016,8 10 0,0
19.11.2017 07:00:00 4,6 3,0 4,0 13 7 - - W 1016,3 10 0,3
19.11.2017 06:00:00 3,4 1,6 2,3 11 6 18 10 WSW 1016,1 10 0,0
19.11.2017 05:00:00 3,4 1,5 1,6 9 5 18 10 WSW 1016,0 10 0,0
19.11.2017 04:00:00 3,3 1,2 1,7 8 4 - - WSW 1015,7 10 0,0
19.11.2017 03:00:00 5,2 2,4 4,4 11 6 18 10 W 1015,9 10 0,0
19.11.2017 02:00:00 4,9 3,0 3,5 4 2 11 6 - 1015,6 10 0,0
19.11.2017 01:00:00 5,8 4,1 5,1 5 3 - - WNW 1015,7 10 0,0
19.11.2017 00:00:00 5,9 4,4 5,3 9 5 18 10 WSW 1015,7 10 0,0
18.11.2017 23:00:00 5,2 4,9 4,8 9 5 11 6 SW 1015,8 10 0,0
18.11.2017 22:00:00 5,2 4,7 5,0 8 4 - - SW 1016,4 10 0,0
18.11.2017 21:00:00 5,6 4,9 5,1 5 3 11 6 WSW 1016,5 10 0,1
18.11.2017 20:00:00 6,2 4,7 5,7 5 3 18 10 W 1016,8 10 0,0
18.11.2017 19:00:00 6,9 4,9 6,4 9 5 - - NW 1017,0 10 0,2
18.11.2017 18:00:00 7,2 4,9 6,9 5 3 22 12 NNW 1017,1 10 0,0
18.11.2017 17:00:00 7,2 5,7 5,8 11 6 22 12 WSW 1017,1 10 0,0
18.11.2017 16:00:00 7,3 5,6 6,8 15 8 - - WSW 1017,2 10 0,0
18.11.2017 15:00:00 7,5 5,3 7,3 21 11 36 19 WSW 1017,3 10 0,9
18.11.2017 14:00:00 7,1 4,4 6,6 24 13 47 25 WSW 1017,7 5 0,6
18.11.2017 13:00:00 7,5 3,7 7,3 31 17 - - WSW 1018,2 10 0,0
18.11.2017 12:00:00 6,9 3,0 6,8 31 17 47 25 SW 1018,9 10 0,0
18.11.2017 11:00:00 6,4 2,9 6,1 24 13 36 19 SW 1019,7 10 0,0
18.11.2017 10:00:00 5,7 2,5 5,5 26 14 - - SW 1020,2 10 0,0
18.11.2017 09:00:00 5,3 2,2 5,0 22 12 29 16 SW 1021,0 10 0,0
18.11.2017 08:00:00 5,1 2,2 4,7 18 10 25 14 SW 1021,1 10 0,0
18.11.2017 07:00:00 5,1 2,1 4,7 16 9 - - SW 1021,4 10 0,0
18.11.2017 06:00:00 4,8 2,2 4,5 18 10 25 14 SW 1021,8 10 0,0
18.11.2017 05:00:00 4,8 2,1 4,2 15 8 18 10 SW 1022,4 10 0,0
18.11.2017 04:00:00 4,3 2,3 4,0 11 6 - - SW 1023,0 10 0,0
18.11.2017 03:00:00 4,1 2,1 3,5 15 8 18 10 SW 1023,7 10 0,0
18.11.2017 02:00:00 3,4 2,1 2,9 15 8 18 10 SW 1024,5 10 0,0
18.11.2017 01:00:00 2,6 1,4 1,5 13 7 - - SW 1025,1 10 0,0
18.11.2017 00:00:00 1,1 0,5 -0,1 13 7 14 8 SW 1025,4 10 0,0
17.11.2017 23:00:00 1,2 0,8 -2,3 8 4 11 6 SW 1025,8 10 0,0
17.11.2017 22:00:00 3,0 2,0 -1,6 5 3 - - SW 1026,1 10 0,0
17.11.2017 21:00:00 3,2 2,2 1,2 5 3 11 6 WSW 1026,3 10 0,0
17.11.2017 20:00:00 4,2 2,4 0,6 8 4 7 4 SW 1026,3 10 0,0
17.11.2017 19:00:00 3,8 2,7 1,2 4 2 - - WSW 1026,7 10 0,0
17.11.2017 18:00:00 3,2 2,2 -0,4 4 2 7 4 SW 1026,7 10 0,0
17.11.2017 17:00:00 5,3 2,6 1,1 4 2 4 2 S 1026,6 10 0,0
17.11.2017 16:00:00 8,8 2,0 7,3 2 1 - - WNW 1027,1 10 0,0
17.11.2017 15:00:00 9,2 1,9 7,7 5 3 14 8 W 1027,3 10 0,0
17.11.2017 14:00:00 10,1 2,2 10,7 8 4 18 10 W 1027,7 10 0,0
17.11.2017 13:00:00 10,2 2,5 11,4 5 3 - - - 1027,8 10 0,0
17.11.2017 12:00:00 10,5 4,0 12,3 2 1 4 2 SW 1028,0 10 0,0

tt = Température de l'air
td = dewpoint
tt 5cm = Température de l'air 5cm
ff = Vitesse du vent
fx = gusts
dd = Direction du vent
ppp = reduced air pressure
vv = visibility
rr = Quantités de précipitations

stations d'obs. à proximité